SCP
0 0 -0 0 0 0 0 -0 -0 -0 -0 -0 -0 -0 0 0 0 -0 -0 -0 0 0 0 0 0 0 0 0 -0 -0 0 0 -0 -0 0 0 -0 -0 -0 -0 -0 -0 -0 -0 -0 -0 -0 -0 -0
0 0 0 0 0 0 0 0 -0 0 0 0 0 -0 0 -0 0 0 0 0 0 0 0 0 0 0 0 0 -0 -0 -0 -0 -0 -0 -0 0 0 0 -0 -0 -0 -0 -0 -0 -0 -0 -0 -0 -0
0 0 0 0 0 0 0 0 0 0 0 0 -0 0 0 -0 0 0 -0 -0 0 0 -0 0 0 0 0 -0 -0 -0 -0 -0 -0 -0 0 -0 0 -0 -0 -0 -0 -0 -0 -0 -0 -0 -0 0 0
0 0 0 0 0 0 0 0 0 0 0 0 -0 -0 0 0 0 -0 0 -0 0 0 -0 -0 -0 0 0 0 0 -0 0 0 0 0 -0 -0 -0 -0 -0 -0 -0 -0 -0 -0 -0 -0 -0 0 0
0 0 0 0 0 0 0 0 0 0 0 0 0 0 0 0 -0 -0 -0 -0 -0 0 0 0 0 0 0 0 0 0 0 0 0 0 -0 -0 -0 -0 -0 -0 -0 -0 -0 -0 -0 -0 -0 0 0
0 0 0 0 0 0 0 0 0 0 0 0 0 0 0 0 -0 -0 -0 -0 -0 -0 -0 -0 0 -0 0 0 -0 -0 0 -0 -0 -0 -0 -0 -0 -0 -0 -0 -0 -0 -0 -0 -0 0 0 0 0
0 0 0 0 0 0 0 0 0 0 0 0 0 0 0 0 -0 -0 -0 -0 -0 -0 -0 -0 -0 -0 -0 -0 -0 -0 -0 -0 -0 -0 -0 -0 -0 -0 -0 -0 -0 -0 -0 0 0 0 0 0 0
0 0 0 0 0 0 0 0 0 0 0 0 0 0 0 -0 -0 -0 -0 -0 -0 -0 -0 -0 -0 -0 -0 -0 -0 -0 -0 -0 -0 -0 -0 -0 -0 -0 -0 -0 -0 -0 -0 -0 -0 0 0 0 0
0 0 0 0 0 0 0 0 0 0 0 0 0 0 0 -0 -0 0 -0 -0 -0 -0 -0 -0 -0 -0 -0 -0 -0 -0 -0 -0 -0 -0 -0 -0 -0 -0 -0 -0 -0 -0 -0 -0 -0 0 0 0 0
0 0 0 0 0 0 0 0 0 0 0 0 0 0 0 0 -0 -0 -0 -0 -0 -0 -0 -0 -0 -0 -0 -0 -0 -0 -0 -0 -0 -0 -0 0 0 -0 -0 -0 -0 -0 -0 -0 0 0 0 0 0
0 0 0 0 0 0 0 0 0 0 0 0 0 0 0 0 0 0 -0 -0 -0 -0 -0 -0 -0 -0 -0 -0 -0 0 0 -0 -0 -0 -0 -0 -0 -0 -0 -0 -0 0 0 0 0 0 0 0 0
0 0 0 0 0 0 0 0 0 0 0 0 0 0 0 0 0 0 0 0 -0 -0 -0 -0 -0 -0 -0 -0 -0 -0 0 -0 -0 -0 -0 -0 -0 -0 0 0 0 0 0 0 0 0 0 0 0
0 0 0 0 0 0 0 0 0 0 0 0 0 0 0 0 0 0 0 0 0 -0 -0 -0 -0 -0 -0 -0 -0 0 0 0 -0 -0 -0 -0 -0 -0 0 0 0 0 0 0 0 0 0 0 0
0 0 0 0 0 0 0 0 0 0 0 0 0 0 0 0 0 0 0 0 0 -0 0 -0 -0 -0 0 0 -0 -0 0 0 0 0 -0 -0 0 0 0 0 0 0 0 0 0 0 0 0 0
0 0 0 0 0 0 0 0 0 0 0 0 0 0 0 0 0 0 0 0 0 0 0 0 -0 -0 0 0 0 0 0 0 0 0 0 0 0 0 0 0 0 0 0 0 0 0 0 0 0
0 0 0 0 0 0 0 0 0 0 0 0 0 0 0 0 0 0 0 0 0 0 0 0 0 0 0 0 0 0 0 0 0 0 0 0 0 0 0 0 0 0 0 0 0 0 0 0 0
0 0 0 0 0 0 0 0 0 0 0 0 0 0 0 0 0 0 0 0 0 0 0 0 0 0 0 0 0 0 0 0 0 0 0 0 0 0 0 0 0 0 0 0 0 0 0 0 0
0 0 0 0 0 0 0 0 0 0 0 0 0 0 0 0 0 0 0 0 0 0 0 0 0 0 0 0 0 0 0 0 0 0 0 0 0 0 0 0 0 0 0 0 0 0 0 0 0
0 0 0 0 0 0 0 0 0 0 0 0 0 0 0 0 0 0 0 0 0 0 0 0 0 0 0 0 0 0 0 0 0 0 0 0 0 0 0 0 0 0 0 0 0 0 0 0 0
0 0 0 0 0 0 0 0 0 0 0 0 0 0 0 0 0 0 0 0 0 0 0 0 0 0 0 0 0 0 0 0 0 0 0 0 0 0 0 0 0 0 0 0 0 0 0 0 0
0 0 0 0 0 0 0 0 0 0 0 0 0 0 0 0 0 0 0 0 0 0 0 0 0 0 0 0 0 0 0 0 0 0 0 0 0 0 0 0 0 0 0 0 0 0 0 0 0
0 0 0 0 0 0 0 0 0 0 0 0 -0 0 0 -0 0 0 0 0 0 0 0 0 0 0 0 0 0 0 0 0 0 0 0 0 0 0 0 0 0 0 0 0 0 0 0 0 0
0 0 0 0 0 0 0 0 -0 0 0 0 0 -0 -0 -0 -0 0 0 0 0 0 0 0 0 0 0 0 0 0 0 0 0 0 0 0 0 0 0 0 0 0 0 0 0 0 0 0 0
0 0 0 0 0 0 0 0 -0 0 0 0 0 0 0 0 0 0 0 0 0 0 0 0 0 0 0 0 0 0 0 0 0 0 0 0 0 0 0 0 0 0 0 0 0 0 0 0 0
0 0 0 0 0 0 0 0 0 0 0 0 0 0 0 0 0 -0 -0 0 0 0 0 0 0 0 0 0 0 0 0 0 0 0 0 0 0 0 0 0 0 0 0 0 0 0 0 0 0
0 0 0 0 0 0 0 0 0 0 0 0 0 0 0 0 0 0 0 0 0 0 0 0 0 0 0 0 0 0 0 0 0 0 0 0 0 0 0 0 0 0 0 0 0 0 0 0 0
0 0 0 0 0 0 0 0 0 0 0 0 0 0 0 0 0 0 0 0 0 0 0 0 0 0 0 0 0 0 0 0 0 0 0 0 0 0 0 0 0 0 0 0 0 0 0 0 0
0 0 0 0 0 0 0 0 0 0 -0 0 0 0 0 0 0 0 0 0 0 0 0 0 0 0 0 0 0 0 0 0 0 0 0 0 0 0 0 0 0 0 0 0 0 0 0 0 0
0 0 0 0 0 0 0 0 -0 0 0 0 0 0 0 0 0 0 0 0 0 0 0 0 0 0 0 0 0 0 0 0 0 0 0 0 0 0 0 0 0 0 0 0 0 0 0 0 0
0 0 0 0 0 0 0 0 0 0 0 0 0 0 0 0 0 0 0 0 0 0 0 0 0 0 0 0 0 0 0 0 0 0 0 0 0 0 0 0 0 0 0 0 0 0 0 0 0
Wind_Speed_500mb
15 18 19 8 7 4 9 9 3 15 17 9 17 6 5 4 5 7 34 30 31 25 21 19 21 25 23 18 16 18 24 28 25 24 23 26 24 23 21 20 26 30 25 26 24 25 25 25 26
12 16 11 3 6 9 9 11 17 17 15 21 15 10 7 7 6 20 37 37 31 25 24 20 23 25 21 21 20 20 22 25 27 26 24 22 18 17 17 27 31 28 27 28 30 28 29 29 31
8 11 5 3 3 7 6 14 19 14 25 20 12 3 3 8 9 43 31 41 34 28 26 22 23 22 21 20 20 20 19 22 25 24 19 13 17 21 29 25 25 32 25 27 27 30 30 31 30
4 4 9 5 4 0 3 14 18 30 8 11 9 8 6 9 32 27 46 41 34 30 28 23 23 20 19 18 20 22 21 21 19 19 15 16 25 27 27 24 34 28 22 25 26 27 28 28 28
5 5 4 1 4 3 4 5 28 27 19 17 15 10 6 17 33 39 48 41 34 32 29 23 22 21 18 18 18 22 23 24 21 19 22 21 22 24 28 28 32 27 24 24 25 25 25 26 27
6 3 8 9 7 2 4 9 25 16 14 15 11 17 9 31 30 47 47 39 34 31 31 26 24 21 19 18 18 20 22 24 24 25 23 24 21 22 25 24 27 26 24 22 23 23 24 25 26
7 5 9 10 5 5 5 17 27 19 16 14 15 14 9 39 35 49 46 38 37 33 32 30 26 24 21 19 18 17 19 22 20 21 20 21 20 20 19 22 23 22 22 21 21 21 21 22 24
9 5 9 9 13 9 11 22 14 20 13 13 17 10 12 44 45 50 46 39 39 37 34 31 29 26 24 22 19 17 16 18 16 15 13 17 16 15 15 16 18 18 18 19 19 20 20 21 22
14 8 15 11 11 4 16 20 12 14 14 13 18 6 14 47 51 54 53 46 43 42 38 33 30 28 25 22 20 19 17 15 14 12 11 11 12 11 11 12 12 13 14 15 17 18 19 19 19
9 10 15 8 8 3 12 21 23 14 16 14 18 19 20 51 56 63 62 56 51 47 43 38 33 29 27 23 21 18 15 14 12 11 9 10 11 9 7 8 8 9 10 11 14 15 15 16 16
11 12 10 9 11 8 6 14 19 16 16 29 35 32 31 52 56 61 61 58 55 49 46 42 37 32 28 26 24 20 17 15 13 10 8 8 8 8 8 6 5 5 5 7 9 12 12 12 12
17 11 11 14 10 9 9 8 14 29 18 15 22 33 37 53 58 62 61 57 55 52 47 44 41 37 33 30 27 22 19 16 14 12 9 9 8 7 5 4 4 3 2 2 5 9 11 10 9
15 14 15 10 9 7 8 15 16 24 28 14 26 34 40 47 54 56 54 57 55 54 52 48 44 41 37 33 29 26 23 21 18 15 12 10 10 9 6 4 3 3 2 2 1 5 8 9 8
20 11 12 8 6 9 9 6 11 13 30 27 28 35 40 45 49 50 55 60 61 55 53 49 45 42 39 37 33 29 26 24 22 20 17 16 15 13 10 8 6 6 6 6 5 5 6 6 7
11 17 4 9 9 9 11 8 18 20 20 27 32 32 36 40 45 51 53 56 58 56 50 49 45 44 42 41 37 33 30 29 27 26 25 22 19 18 16 14 11 10 10 9 9 10 9 9 9
9 5 9 9 16 12 13 27 25 29 27 32 28 28 33 41 45 43 44 50 52 51 51 49 48 46 44 40 38 38 34 33 32 31 30 26 23 21 19 18 15 14 13 14 14 13 13 12 12
5 14 24 10 24 9 20 20 16 23 35 31 33 33 35 36 43 43 44 45 48 47 46 49 47 45 40 35 36 36 34 36 37 35 32 28 25 25 21 17 16 15 16 17 20 19 17 14 13
17 18 13 22 15 13 17 28 8 13 21 26 28 33 35 39 48 44 46 47 48 49 48 48 49 47 44 41 38 37 39 36 39 38 34 33 30 26 21 20 22 21 22 19 21 24 21 20 22
23 20 24 17 9 15 27 28 31 22 15 25 30 34 37 46 40 45 49 49 52 54 55 55 53 53 52 53 51 47 45 40 40 43 39 30 31 30 29 28 29 27 25 21 22 16 17 20 20
21 20 22 4 5 11 13 30 31 24 23 31 32 36 42 43 46 52 55 56 58 57 60 61 61 61 59 59 56 54 48 45 39 35 38 41 40 38 36 35 32 34 31 30 27 24 23 26 27
18 25 15 5 6 6 9 31 31 22 34 36 36 41 36 47 55 57 61 62 62 66 65 63 66 65 65 62 60 59 60 54 50 50 45 43 46 45 44 40 40 40 39 36 34 36 34 32 39
18 15 8 9 4 14 3 16 21 32 32 26 47 45 55 59 60 56 61 67 70 71 68 65 62 65 65 64 67 66 67 64 57 52 48 47 40 50 50 47 44 43 43 44 40 42 41 44 46
8 19 14 7 8 7 13 11 10 4 24 29 41 56 73 74 71 68 68 63 67 70 72 66 64 66 66 70 68 68 70 65 58 53 50 46 42 34 39 45 43 43 41 41 42 43 49 49 46
24 16 11 6 3 16 27 19 19 22 27 35 53 62 74 88 85 83 76 72 66 63 67 66 68 69 70 70 71 72 70 67 65 59 53 50 45 40 38 37 37 38 42 42 44 46 46 44 41
13 27 8 11 13 14 5 12 29 21 26 28 31 31 36 51 63 73 82 78 67 67 69 69 70 68 70 70 71 71 70 68 67 62 56 55 50 46 46 46 43 43 40 39 41 41 41 40 38
35 32 11 14 9 5 4 15 9 26 36 26 32 28 30 24 38 44 47 56 67 65 68 71 69 66 63 64 66 68 69 71 71 64 63 62 57 52 47 51 49 43 40 38 40 40 40 39 35
20 19 10 11 3 3 10 9 21 34 28 21 28 31 38 41 34 31 27 34 47 63 71 68 64 59 58 57 58 63 67 70 68 67 66 62 60 60 56 55 50 45 41 38 40 40 39 37 36
20 25 12 7 9 10 7 9 16 6 14 9 9 23 35 35 43 50 41 31 36 45 56 57 55 52 51 53 55 57 59 60 62 63 61 62 60 58 57 55 51 45 42 41 41 39 38 39 40
12 20 9 13 8 6 3 5 10 5 11 18 17 18 17 21 28 34 31 27 30 36 43 46 47 46 46 47 49 52 54 56 60 64 60 57 54 54 56 48 47 49 41 41 41 42 44 43 37
7 23 28 15 10 4 5 11 3 6 3 15 20 13 9 8 20 25 25 26 29 33 35 35 36 39 42 45 47 49 50 53 57 56 54 52 44 44 46 50 48 46 44 44 45 46 45 41 36
Wind_Direction_500mb
332 339 337 339 223 241 139 146 128 140 158 150 149 193 203 32 344 63 149 156 154 146 138 120 117 125 115 109 93 102 136 135 120 120 116 112 110 109 104 103 97 87 87 88 86 80 76 71 68
326 339 342 352 234 204 147 150 174 151 137 139 138 138 172 101 111 144 148 154 155 150 137 128 126 132 121 106 88 92 111 114 115 111 117 116 119 111 95 96 103 99 87 85 83 76 70 67 68
325 341 340 359 255 220 166 183 151 135 142 151 147 142 146 119 161 151 158 156 157 155 140 133 129 134 126 109 94 91 101 113 118 114 122 115 132 117 104 100 107 98 90 90 79 72 68 66 70
294 46 44 287 250 67 2 169 157 146 172 175 156 146 121 164 152 159 158 156 158 156 143 140 133 134 134 114 98 101 102 105 113 114 118 117 116 119 114 103 101 107 104 87 82 74 69 68 70
245 133 164 161 272 277 259 210 174 162 157 166 168 152 136 162 157 162 161 157 163 159 150 145 137 132 129 121 105 104 105 106 105 108 104 101 93 98 102 99 106 107 94 85 80 73 69 69 70
186 226 193 226 224 236 241 193 180 174 158 155 163 146 139 170 167 164 164 159 166 167 157 152 146 137 132 128 117 105 103 98 96 98 101 103 97 95 102 99 99 98 91 83 73 67 65 67 68
203 224 222 198 210 245 199 168 194 183 163 179 152 153 155 172 170 168 167 165 169 173 167 160 157 148 141 137 129 117 107 107 108 106 114 115 103 100 96 96 93 89 85 79 72 66 65 67 68
158 198 178 219 214 218 160 166 188 187 179 172 170 179 169 183 173 172 174 169 174 177 177 172 166 161 154 147 140 136 123 119 116 114 108 101 110 101 93 93 92 88 85 76 68 63 64 65 68
155 203 216 208 197 164 159 177 176 192 155 175 192 179 183 184 177 175 179 179 180 182 183 182 177 172 166 159 154 153 146 137 130 124 116 124 126 117 106 98 95 90 81 72 64 63 65 69 72
175 216 212 186 188 138 190 196 168 181 174 193 195 190 177 185 186 183 186 187 188 187 186 190 188 183 178 174 170 167 160 153 150 140 131 138 135 128 113 103 104 95 84 70 63 60 63 68 66
176 212 171 194 210 183 176 213 177 195 205 211 203 190 184 187 192 191 193 195 195 193 192 193 193 193 193 190 188 181 177 176 168 163 149 142 140 133 120 99 105 98 83 66 60 52 56 60 63
182 197 169 161 168 154 182 166 212 210 222 224 204 199 198 192 197 199 199 199 197 200 199 198 198 201 202 204 203 199 195 195 190 185 184 170 166 160 159 155 144 124 92 79 48 38 36 36 39
206 169 182 188 194 193 182 216 225 236 228 221 199 198 204 199 199 203 205 205 203 205 205 204 205 205 209 212 214 209 212 208 208 206 203 209 204 201 201 213 242 235 237 254 330 5 11 15 12
183 177 156 165 219 202 205 201 195 242 216 217 203 204 203 205 204 202 204 208 208 208 209 207 209 213 214 220 222 222 215 219 221 223 219 220 225 228 227 236 251 266 261 253 269 294 313 333 337
142 189 148 193 201 235 205 204 225 221 207 201 208 206 205 205 203 209 210 210 210 211 210 211 212 218 221 224 227 228 227 223 227 227 231 230 234 240 244 242 246 262 277 284 279 286 294 300 310
149 122 169 197 179 220 207 248 241 206 202 201 208 213 213 214 212 209 209 210 210 211 213 212 216 221 224 228 231 234 234 236 234 233 234 235 236 241 241 237 253 259 270 278 281 288 294 294 294
316 191 206 173 198 172 213 245 250 200 204 199 204 214 217 216 217 214 212 211 210 208 208 211 214 216 220 225 230 234 236 241 239 239 237 234 238 248 243 243 255 259 277 285 281 277 277 288 299
177 211 199 213 181 199 207 240 219 214 222 220 211 212 215 219 223 218 217 211 211 213 214 217 221 222 222 227 227 226 229 234 233 234 233 231 238 234 240 244 257 261 266 274 290 278 271 277 285
192 199 214 221 176 211 222 237 240 211 219 220 218 215 217 225 224 221 221 220 216 216 217 219 222 224 225 228 229 230 234 235 238 239 236 238 236 241 243 244 249 256 265 271 282 292 278 276 280
171 184 203 159 128 236 232 245 245 229 232 227 226 222 224 227 221 223 222 218 221 221 222 223 226 227 229 232 235 238 244 242 249 245 244 239 238 243 243 247 253 258 261 260 267 272 275 277 279
179 190 175 214 138 227 286 265 248 234 232 235 238 239 237 237 232 228 227 224 224 225 226 227 229 231 233 234 237 237 239 240 239 238 240 238 241 245 246 248 249 255 259 263 264 264 261 266 272
189 203 155 150 207 244 245 268 225 236 229 217 232 232 240 241 244 237 232 228 229 231 231 231 233 235 236 235 237 239 239 239 242 245 247 248 248 241 240 247 249 251 258 260 260 263 264 261 265
184 146 153 131 220 272 206 257 243 241 237 230 228 231 239 243 246 247 247 241 236 234 233 233 234 237 237 235 236 239 239 243 245 245 250 246 245 243 238 240 247 251 257 263 261 259 260 264 270
141 110 84 98 193 251 237 233 252 223 225 234 229 224 227 236 243 245 247 248 243 236 233 233 234 237 236 235 235 237 238 241 244 244 242 241 236 233 240 242 245 247 253 257 261 258 261 268 271
176 158 161 216 218 243 90 239 258 240 243 239 248 241 242 237 238 242 244 245 244 234 229 230 233 235 236 233 234 236 239 239 244 246 245 243 237 232 240 242 250 252 256 253 255 255 260 265 268
183 185 178 194 209 223 75 237 240 249 262 248 251 254 250 244 235 240 242 241 238 232 229 228 230 233 234 233 234 238 237 239 241 243 247 244 240 235 241 247 248 250 253 253 251 251 251 258 265
178 203 149 106 46 274 211 259 270 266 264 254 251 254 257 247 239 231 237 237 232 226 224 224 226 229 231 233 234 235 236 237 241 244 245 247 241 232 238 243 248 244 250 249 247 247 251 253 257
199 146 175 212 193 228 201 264 247 247 262 287 248 249 246 244 241 238 242 242 230 221 218 219 221 225 228 230 232 234 236 238 241 245 246 244 240 232 233 239 239 246 243 239 240 243 245 248 254
156 187 182 181 205 213 264 231 239 293 277 290 289 290 231 222 233 226 223 219 206 203 206 212 216 222 227 230 232 234 238 242 246 247 246 243 236 231 227 232 237 239 235 234 236 238 241 244 241
188 186 193 200 198 253 92 268 182 228 267 309 315 315 236 200 180 184 195 196 194 198 204 212 220 226 229 235 239 241 242 242 241 239 237 240 224 214 218 224 231 231 228 228 230 232 241 240 238
Wind_Speed_850mb
15 18 19 8 7 4 9 9 3 15 17 9 17 6 5 4 5 7 34 30 31 25 21 19 21 25 23 18 16 18 24 28 25 24 23 26 24 23 21 20 26 30 25 26 24 25 25 25 26
12 16 11 3 6 9 9 11 17 17 15 21 15 10 7 7 6 20 37 37 31 25 24 20 23 25 21 21 20 20 22 25 27 26 24 22 18 17 17 27 31 28 27 28 30 28 29 29 31
8 11 5 3 3 7 6 14 19 14 25 20 12 3 3 8 9 43 31 41 34 28 26 22 23 22 21 20 20 20 19 22 25 24 19 13 17 21 29 25 25 32 25 27 27 30 30 31 30
4 4 9 5 4 0 3 14 18 30 8 11 9 8 6 9 32 27 46 41 34 30 28 23 23 20 19 18 20 22 21 21 19 19 15 16 25 27 27 24 34 28 22 25 26 27 28 28 28
5 5 4 1 4 3 4 5 28 27 19 17 15 10 6 17 33 39 48 41 34 32 29 23 22 21 18 18 18 22 23 24 21 19 22 21 22 24 28 28 32 27 24 24 25 25 25 26 27
6 3 8 9 7 2 4 9 25 16 14 15 11 17 9 31 30 47 47 39 34 31 31 26 24 21 19 18 18 20 22 24 24 25 23 24 21 22 25 24 27 26 24 22 23 23 24 25 26
7 5 9 10 5 5 5 17 27 19 16 14 15 14 9 39 35 49 46 38 37 33 32 30 26 24 21 19 18 17 19 22 20 21 20 21 20 20 19 22 23 22 22 21 21 21 21 22 24
9 5 9 9 13 9 11 22 14 20 13 13 17 10 12 44 45 50 46 39 39 37 34 31 29 26 24 22 19 17 16 18 16 15 13 17 16 15 15 16 18 18 18 19 19 20 20 21 22
14 8 15 11 11 4 16 20 12 14 14 13 18 6 14 47 51 54 53 46 43 42 38 33 30 28 25 22 20 19 17 15 14 12 11 11 12 11 11 12 12 13 14 15 17 18 19 19 19
9 10 15 8 8 3 12 21 23 14 16 14 18 19 20 51 56 63 62 56 51 47 43 38 33 29 27 23 21 18 15 14 12 11 9 10 11 9 7 8 8 9 10 11 14 15 15 16 16
11 12 10 9 11 8 6 14 19 16 16 29 35 32 31 52 56 61 61 58 55 49 46 42 37 32 28 26 24 20 17 15 13 10 8 8 8 8 8 6 5 5 5 7 9 12 12 12 12
17 11 11 14 10 9 9 8 14 29 18 15 22 33 37 53 58 62 61 57 55 52 47 44 41 37 33 30 27 22 19 16 14 12 9 9 8 7 5 4 4 3 2 2 5 9 11 10 9
15 14 15 10 9 7 8 15 16 24 28 14 26 34 40 47 54 56 54 57 55 54 52 48 44 41 37 33 29 26 23 21 18 15 12 10 10 9 6 4 3 3 2 2 1 5 8 9 8
20 11 12 8 6 9 9 6 11 13 30 27 28 35 40 45 49 50 55 60 61 55 53 49 45 42 39 37 33 29 26 24 22 20 17 16 15 13 10 8 6 6 6 6 5 5 6 6 7
11 17 4 9 9 9 11 8 18 20 20 27 32 32 36 40 45 51 53 56 58 56 50 49 45 44 42 41 37 33 30 29 27 26 25 22 19 18 16 14 11 10 10 9 9 10 9 9 9
9 5 9 9 16 12 13 27 25 29 27 32 28 28 33 41 45 43 44 50 52 51 51 49 48 46 44 40 38 38 34 33 32 31 30 26 23 21 19 18 15 14 13 14 14 13 13 12 12
5 14 24 10 24 9 20 20 16 23 35 31 33 33 35 36 43 43 44 45 48 47 46 49 47 45 40 35 36 36 34 36 37 35 32 28 25 25 21 17 16 15 16 17 20 19 17 14 13
17 18 13 22 15 13 17 28 8 13 21 26 28 33 35 39 48 44 46 47 48 49 48 48 49 47 44 41 38 37 39 36 39 38 34 33 30 26 21 20 22 21 22 19 21 24 21 20 22
23 20 24 17 9 15 27 28 31 22 15 25 30 34 37 46 40 45 49 49 52 54 55 55 53 53 52 53 51 47 45 40 40 43 39 30 31 30 29 28 29 27 25 21 22 16 17 20 20
21 20 22 4 5 11 13 30 31 24 23 31 32 36 42 43 46 52 55 56 58 57 60 61 61 61 59 59 56 54 48 45 39 35 38 41 40 38 36 35 32 34 31 30 27 24 23 26 27
18 25 15 5 6 6 9 31 31 22 34 36 36 41 36 47 55 57 61 62 62 66 65 63 66 65 65 62 60 59 60 54 50 50 45 43 46 45 44 40 40 40 39 36 34 36 34 32 39
18 15 8 9 4 14 3 16 21 32 32 26 47 45 55 59 60 56 61 67 70 71 68 65 62 65 65 64 67 66 67 64 57 52 48 47 40 50 50 47 44 43 43 44 40 42 41 44 46
8 19 14 7 8 7 13 11 10 4 24 29 41 56 73 74 71 68 68 63 67 70 72 66 64 66 66 70 68 68 70 65 58 53 50 46 42 34 39 45 43 43 41 41 42 43 49 49 46
24 16 11 6 3 16 27 19 19 22 27 35 53 62 74 88 85 83 76 72 66 63 67 66 68 69 70 70 71 72 70 67 65 59 53 50 45 40 38 37 37 38 42 42 44 46 46 44 41
13 27 8 11 13 14 5 12 29 21 26 28 31 31 36 51 63 73 82 78 67 67 69 69 70 68 70 70 71 71 70 68 67 62 56 55 50 46 46 46 43 43 40 39 41 41 41 40 38
35 32 11 14 9 5 4 15 9 26 36 26 32 28 30 24 38 44 47 56 67 65 68 71 69 66 63 64 66 68 69 71 71 64 63 62 57 52 47 51 49 43 40 38 40 40 40 39 35
20 19 10 11 3 3 10 9 21 34 28 21 28 31 38 41 34 31 27 34 47 63 71 68 64 59 58 57 58 63 67 70 68 67 66 62 60 60 56 55 50 45 41 38 40 40 39 37 36
20 25 12 7 9 10 7 9 16 6 14 9 9 23 35 35 43 50 41 31 36 45 56 57 55 52 51 53 55 57 59 60 62 63 61 62 60 58 57 55 51 45 42 41 41 39 38 39 40
12 20 9 13 8 6 3 5 10 5 11 18 17 18 17 21 28 34 31 27 30 36 43 46 47 46 46 47 49 52 54 56 60 64 60 57 54 54 56 48 47 49 41 41 41 42 44 43 37
7 23 28 15 10 4 5 11 3 6 3 15 20 13 9 8 20 25 25 26 29 33 35 35 36 39 42 45 47 49 50 53 57 56 54 52 44 44 46 50 48 46 44 44 45 46 45 41 36
Wind_Direction_850mb
332 339 337 339 223 241 139 146 128 140 158 150 149 193 203 32 344 63 149 156 154 146 138 120 117 125 115 109 93 102 136 135 120 120 116 112 110 109 104 103 97 87 87 88 86 80 76 71 68
326 339 342 352 234 204 147 150 174 151 137 139 138 138 172 101 111 144 148 154 155 150 137 128 126 132 121 106 88 92 111 114 115 111 117 116 119 111 95 96 103 99 87 85 83 76 70 67 68
325 341 340 359 255 220 166 183 151 135 142 151 147 142 146 119 161 151 158 156 157 155 140 133 129 134 126 109 94 91 101 113 118 114 122 115 132 117 104 100 107 98 90 90 79 72 68 66 70
294 46 44 287 250 67 2 169 157 146 172 175 156 146 121 164 152 159 158 156 158 156 143 140 133 134 134 114 98 101 102 105 113 114 118 117 116 119 114 103 101 107 104 87 82 74 69 68 70
245 133 164 161 272 277 259 210 174 162 157 166 168 152 136 162 157 162 161 157 163 159 150 145 137 132 129 121 105 104 105 106 105 108 104 101 93 98 102 99 106 107 94 85 80 73 69 69 70
186 226 193 226 224 236 241 193 180 174 158 155 163 146 139 170 167 164 164 159 166 167 157 152 146 137 132 128 117 105 103 98 96 98 101 103 97 95 102 99 99 98 91 83 73 67 65 67 68
203 224 222 198 210 245 199 168 194 183 163 179 152 153 155 172 170 168 167 165 169 173 167 160 157 148 141 137 129 117 107 107 108 106 114 115 103 100 96 96 93 89 85 79 72 66 65 67 68
158 198 178 219 214 218 160 166 188 187 179 172 170 179 169 183 173 172 174 169 174 177 177 172 166 161 154 147 140 136 123 119 116 114 108 101 110 101 93 93 92 88 85 76 68 63 64 65 68
155 203 216 208 197 164 159 177 176 192 155 175 192 179 183 184 177 175 179 179 180 182 183 182 177 172 166 159 154 153 146 137 130 124 116 124 126 117 106 98 95 90 81 72 64 63 65 69 72
175 216 212 186 188 138 190 196 168 181 174 193 195 190 177 185 186 183 186 187 188 187 186 190 188 183 178 174 170 167 160 153 150 140 131 138 135 128 113 103 104 95 84 70 63 60 63 68 66
176 212 171 194 210 183 176 213 177 195 205 211 203 190 184 187 192 191 193 195 195 193 192 193 193 193 193 190 188 181 177 176 168 163 149 142 140 133 120 99 105 98 83 66 60 52 56 60 63
182 197 169 161 168 154 182 166 212 210 222 224 204 199 198 192 197 199 199 199 197 200 199 198 198 201 202 204 203 199 195 195 190 185 184 170 166 160 159 155 144 124 92 79 48 38 36 36 39
206 169 182 188 194 193 182 216 225 236 228 221 199 198 204 199 199 203 205 205 203 205 205 204 205 205 209 212 214 209 212 208 208 206 203 209 204 201 201 213 242 235 237 254 330 5 11 15 12
183 177 156 165 219 202 205 201 195 242 216 217 203 204 203 205 204 202 204 208 208 208 209 207 209 213 214 220 222 222 215 219 221 223 219 220 225 228 227 236 251 266 261 253 269 294 313 333 337
142 189 148 193 201 235 205 204 225 221 207 201 208 206 205 205 203 209 210 210 210 211 210 211 212 218 221 224 227 228 227 223 227 227 231 230 234 240 244 242 246 262 277 284 279 286 294 300 310
149 122 169 197 179 220 207 248 241 206 202 201 208 213 213 214 212 209 209 210 210 211 213 212 216 221 224 228 231 234 234 236 234 233 234 235 236 241 241 237 253 259 270 278 281 288 294 294 294
316 191 206 173 198 172 213 245 250 200 204 199 204 214 217 216 217 214 212 211 210 208 208 211 214 216 220 225 230 234 236 241 239 239 237 234 238 248 243 243 255 259 277 285 281 277 277 288 299
177 211 199 213 181 199 207 240 219 214 222 220 211 212 215 219 223 218 217 211 211 213 214 217 221 222 222 227 227 226 229 234 233 234 233 231 238 234 240 244 257 261 266 274 290 278 271 277 285
192 199 214 221 176 211 222 237 240 211 219 220 218 215 217 225 224 221 221 220 216 216 217 219 222 224 225 228 229 230 234 235 238 239 236 238 236 241 243 244 249 256 265 271 282 292 278 276 280
171 184 203 159 128 236 232 245 245 229 232 227 226 222 224 227 221 223 222 218 221 221 222 223 226 227 229 232 235 238 244 242 249 245 244 239 238 243 243 247 253 258 261 260 267 272 275 277 279
179 190 175 214 138 227 286 265 248 234 232 235 238 239 237 237 232 228 227 224 224 225 226 227 229 231 233 234 237 237 239 240 239 238 240 238 241 245 246 248 249 255 259 263 264 264 261 266 272
189 203 155 150 207 244 245 268 225 236 229 217 232 232 240 241 244 237 232 228 229 231 231 231 233 235 236 235 237 239 239 239 242 245 247 248 248 241 240 247 249 251 258 260 260 263 264 261 265
184 146 153 131 220 272 206 257 243 241 237 230 228 231 239 243 246 247 247 241 236 234 233 233 234 237 237 235 236 239 239 243 245 245 250 246 245 243 238 240 247 251 257 263 261 259 260 264 270
141 110 84 98 193 251 237 233 252 223 225 234 229 224 227 236 243 245 247 248 243 236 233 233 234 237 236 235 235 237 238 241 244 244 242 241 236 233 240 242 245 247 253 257 261 258 261 268 271
176 158 161 216 218 243 90 239 258 240 243 239 248 241 242 237 238 242 244 245 244 234 229 230 233 235 236 233 234 236 239 239 244 246 245 243 237 232 240 242 250 252 256 253 255 255 260 265 268
183 185 178 194 209 223 75 237 240 249 262 248 251 254 250 244 235 240 242 241 238 232 229 228 230 233 234 233 234 238 237 239 241 243 247 244 240 235 241 247 248 250 253 253 251 251 251 258 265
178 203 149 106 46 274 211 259 270 266 264 254 251 254 257 247 239 231 237 237 232 226 224 224 226 229 231 233 234 235 236 237 241 244 245 247 241 232 238 243 248 244 250 249 247 247 251 253 257
199 146 175 212 193 228 201 264 247 247 262 287 248 249 246 244 241 238 242 242 230 221 218 219 221 225 228 230 232 234 236 238 241 245 246 244 240 232 233 239 239 246 243 239 240 243 245 248 254
156 187 182 181 205 213 264 231 239 293 277 290 289 290 231 222 233 226 223 219 206 203 206 212 216 222 227 230 232 234 238 242 246 247 246 243 236 231 227 232 237 239 235 234 236 238 241 244 241
188 186 193 200 198 253 92 268 182 228 267 309 315 315 236 200 180 184 195 196 194 198 204 212 220 226 229 235 239 241 242 242 241 239 237 240 224 214 218 224 231 231 228 228 230 232 241 240 238